When you browse on this site, cookies collect data to enhance your experience and personalize the content and advertising you see.
Visit our Privacy Policy to learn more. By continuing to use the site, you agree to this use of cookies and data.
  • In Lithuania
  • List of Countries
  • For 7 days
  • Water Temperature
  • Weather Map
  • Weather Widgets
  • user-avatar
    Login

    Hourly Weather Czyste

    Today, 17 August, Saturday

    Time Temperature Precipitation Wind Pressure Humidity
    00:00 +18°C° 0 mm 1 mps 749 mmHg 74%
    01:00 +18°C° 0 mm 1 mps 749 mmHg 75%
    02:00 +16°C° 0 mm 1 mps 749 mmHg 76%
    03:00 +16°C° 0 mm 1 mps 749 mmHg 77%
    04:00 +15°C° 0 mm 1 mps 749 mmHg 78%
    05:00 +18°C° 0 mm 1 mps 749 mmHg 75%
    06:00 +18°C° 0 mm 2 mps 749 mmHg 71%
    07:00 +19°C° 0 mm 2 mps 749 mmHg 68%
    08:00 +20°C° 0 mm 2 mps 749 mmHg 62%
    09:00 +22°C° 0 mm 3 mps 749 mmHg 56%
    10:00 +24°C° 0 mm 3 mps 749 mmHg 50%
    11:00 +25°C° 0 mm 3 mps 749 mmHg 48%
    12:00 +25°C° 0 mm 3 mps 748 mmHg 45%
    13:00 +26°C° 0 mm 4 mps 748 mmHg 43%
    14:00 +26°C° 0 mm 3 mps 748 mmHg 43%
    15:00 +26°C° 0 mm 3 mps 748 mmHg 43%
    16:00 +26°C° 0 mm 3 mps 747 mmHg 43%
    17:00 +25°C° 0 mm 3 mps 747 mmHg 46%
    18:00 +23°C° 0 mm 2 mps 747 mmHg 49%
    19:00 +21°C° 0 mm 2 mps 747 mmHg 53%
    20:00 +21°C° 0 mm 2 mps 747 mmHg 52%
    21:00 +21°C° 0 mm 3 mps 747 mmHg 52%
    22:00 +21°C° 0 mm 3 mps 747 mmHg 52%
    23:00 +20°C° 0 mm 3 mps 747 mmHg 56%

    Tomorrow, 18 August, Sunday

    Time Temperature Precipitation Wind Pressure Humidity
    00:00 +20°C° 0 mm 3 mps 746 mmHg 59%
    01:00 +19°C° 0 mm 3 mps 746 mmHg 63%
    02:00 +19°C° 0 mm 3 mps 746 mmHg 66%
    03:00 +18°C° 0 mm 3 mps 746 mmHg 68%
    04:00 +18°C° 0 mm 2 mps 746 mmHg 71%
    05:00 +19°C° 0 mm 2 mps 746 mmHg 69%
    06:00 +20°C° 0 mm 2 mps 746 mmHg 67%
    07:00 +21°C° 0 mm 2 mps 746 mmHg 65%
    08:00 +22°C° 0 mm 3 mps 746 mmHg 60%
    09:00 +25°C° 0 mm 4 mps 746 mmHg 54%
    10:00 +26°C° 0 mm 5 mps 745 mmHg 49%
    11:00 +27°C° 0 mm 5 mps 745 mmHg 49%
    12:00 +27°C° 0 mm 6 mps 745 mmHg 49%
    13:00 +28°C° 0 mm 6 mps 745 mmHg 50%
    14:00 +28°C° 0.1 mm 5 mps 745 mmHg 53%
    15:00 +27°C° 0.1 mm 5 mps 745 mmHg 56%
    16:00 +27°C° 0.1 mm 4 mps 745 mmHg 59%
    17:00 +26°C° 0 mm 4 mps 745 mmHg 61%
    18:00 +26°C° 0 mm 4 mps 745 mmHg 63%
    19:00 +25°C° 0 mm 4 mps 745 mmHg 65%
    20:00 +23°C° 0.2 mm 4 mps 745 mmHg 69%
    21:00 +23°C° 0.2 mm 4 mps 745 mmHg 73%
    22:00 +22°C° 0.2 mm 4 mps 746 mmHg 77%
    23:00 +21°C° 0 mm 3 mps 746 mmHg 78%

    Day after tomorrow, 19 August, Monday

    Time Temperature Precipitation Wind Pressure Humidity
    00:00 +21°C° 0 mm 3 mps 746 mmHg 79%
    01:00 +20°C° 0 mm 2 mps 746 mmHg 80%
    02:00 +20°C° 0 mm 2 mps 747 mmHg 82%
    03:00 +19°C° 0 mm 2 mps 747 mmHg 85%
    04:00 +19°C° 0 mm 2 mps 747 mmHg 87%
    05:00 +20°C° 0.1 mm 1 mps 748 mmHg 85%
    06:00 +21°C° 0.1 mm 1 mps 748 mmHg 83%
    07:00 +22°C° 0.1 mm 1 mps 749 mmHg 81%
    08:00 +23°C° 0 mm 1 mps 749 mmHg 74%
    09:00 +24°C° 0 mm 1 mps 749 mmHg 67%
    10:00 +26°C° 0 mm 1 mps 749 mmHg 60%
    11:00 +27°C° 0.2 mm 2 mps 749 mmHg 58%
    12:00 +27°C° 0.2 mm 3 mps 749 mmHg 55%
    13:00 +28°C° 0.2 mm 3 mps 749 mmHg 53%
    14:00 +27°C° 0.8 mm 4 mps 749 mmHg 56%
    15:00 +27°C° 0.8 mm 4 mps 749 mmHg 60%
    16:00 +26°C° 0.8 mm 4 mps 749 mmHg 63%
    17:00 +25°C° 0 mm 4 mps 749 mmHg 67%
    18:00 +22°C° 0 mm 3 mps 750 mmHg 72%
    19:00 +21°C° 0 mm 3 mps 750 mmHg 76%
    20:00 +20°C° 0 mm 3 mps 750 mmHg 79%
    21:00 +20°C° 0 mm 3 mps 751 mmHg 82%
    22:00 +19°C° 0 mm 3 mps 751 mmHg 85%
    23:00 +19°C° 0 mm 2 mps 752 mmHg 86%

    20 August, Tuesday

    Time Temperature Precipitation Wind Pressure Humidity
    00:00 +18°C° 0 mm 2 mps 752 mmHg 87%
    01:00 +19°C° 0 mm 1 mps 752 mmHg 88%
    02:00 +19°C° 0 mm 1 mps 752 mmHg 86%
    03:00 +19°C° 0 mm 1 mps 752 mmHg 85%
    04:00 +16°C° 0 mm 0 mps 752 mmHg 84%
    05:00 +17°C° 0 mm 0 mps 752 mmHg 80%
    06:00 +18°C° 0 mm 0 mps 753 mmHg 77%
    07:00 +19°C° 0 mm 0 mps 753 mmHg 73%
    08:00 +22°C° 0 mm 1 mps 753 mmHg 65%
    09:00 +24°C° 0 mm 1 mps 753 mmHg 58%
    10:00 +25°C° 0 mm 1 mps 753 mmHg 50%
    11:00 +26°C° 0 mm 1 mps 753 mmHg 47%
    12:00 +26°C° 0 mm 2 mps 753 mmHg 44%
    13:00 +27°C° 0 mm 2 mps 753 mmHg 41%
    14:00 +26°C° 0 mm 3 mps 752 mmHg 44%
    15:00 +26°C° 0 mm 3 mps 752 mmHg 47%
    16:00 +25°C° 0 mm 3 mps 751 mmHg 50%
    17:00 +23°C° 0 mm 4 mps 751 mmHg 50%
    18:00 +23°C° 0 mm 4 mps 751 mmHg 50%
    19:00 +23°C° 0 mm 4 mps 751 mmHg 50%
    20:00 +22°C° 0.2 mm 4 mps 751 mmHg 53%
    21:00 +21°C° 0.2 mm 5 mps 751 mmHg 56%
    22:00 +20°C° 0.2 mm 5 mps 751 mmHg 60%
    23:00 +19°C° 6.9 mm 6 mps 750 mmHg 71%

    21 August, Wednesday

    Time Temperature Precipitation Wind Pressure Humidity
    00:00 +17°C° 6.9 mm 7 mps 750 mmHg 82%
    01:00 +15°C° 6.9 mm 8 mps 750 mmHg 94%
    02:00 +15°C° 6.3 mm 8 mps 750 mmHg 93%
    03:00 +15°C° 6.3 mm 9 mps 750 mmHg 93%
    04:00 +15°C° 6.3 mm 9 mps 750 mmHg 93%
    05:00 +15°C° 0.8 mm 8 mps 751 mmHg 92%
    06:00 +15°C° 0.8 mm 6 mps 752 mmHg 91%
    07:00 +15°C° 0.8 mm 5 mps 753 mmHg 90%
    08:00 +17°C° 0.1 mm 4 mps 753 mmHg 83%
    09:00 +18°C° 0.1 mm 4 mps 754 mmHg 77%
    10:00 +19°C° 0.1 mm 4 mps 755 mmHg 70%
    11:00 +20°C° 0 mm 4 mps 755 mmHg 65%
    12:00 +21°C° 0 mm 3 mps 755 mmHg 61%
    13:00 +21°C° 0 mm 3 mps 755 mmHg 56%
    14:00 +22°C° 0 mm 3 mps 755 mmHg 56%
    15:00 +22°C° 0 mm 3 mps 755 mmHg 56%
    16:00 +22°C° 0 mm 3 mps 755 mmHg 55%
    17:00 +21°C° 0.1 mm 3 mps 756 mmHg 62%
    18:00 +20°C° 0.1 mm 2 mps 756 mmHg 69%
    19:00 +18°C° 0.1 mm 2 mps 756 mmHg 75%
    20:00 +18°C° 0 mm 2 mps 756 mmHg 78%
    21:00 +17°C° 0 mm 2 mps 757 mmHg 80%
    22:00 +17°C° 0 mm 2 mps 757 mmHg 83%
    23:00 +16°C° 0 mm 2 mps 757 mmHg 84%

    22 August, Thursday

    Time Temperature Precipitation Wind Pressure Humidity
    00:00 +16°C° 0 mm 2 mps 757 mmHg 85%
    01:00 +15°C° 0 mm 2 mps 757 mmHg 86%
    02:00 +15°C° 0 mm 2 mps 757 mmHg 86%
    03:00 +14°C° 0 mm 2 mps 758 mmHg 86%
    04:00 +14°C° 0 mm 1 mps 758 mmHg 86%
    05:00 +15°C° 0 mm 1 mps 758 mmHg 81%
    06:00 +16°C° 0 mm 1 mps 758 mmHg 77%
    07:00 +16°C° 0 mm 1 mps 758 mmHg 72%
    08:00 +19°C° 0 mm 1 mps 758 mmHg 66%
    09:00 +20°C° 0 mm 1 mps 759 mmHg 60%
    10:00 +22°C° 0 mm 1 mps 759 mmHg 54%
    11:00 +23°C° 0 mm 1 mps 758 mmHg 50%
    12:00 +23°C° 0 mm 1 mps 758 mmHg 47%
    13:00 +24°C° 0 mm 1 mps 758 mmHg 43%
    14:00 +24°C° 0 mm 1 mps 758 mmHg 42%
    15:00 +24°C° 0 mm 1 mps 757 mmHg 41%
    16:00 +24°C° 0 mm 1 mps 757 mmHg 40%
    17:00 +23°C° 0 mm 1 mps 757 mmHg 45%
    18:00 +22°C° 0 mm 1 mps 757 mmHg 49%
    19:00 +19°C° 0 mm 2 mps 757 mmHg 53%
    20:00 +19°C° 0 mm 2 mps 757 mmHg 54%
    21:00 +18°C° 0 mm 2 mps 757 mmHg 56%
    22:00 +17°C° 0 mm 2 mps 758 mmHg 57%
    23:00 +17°C° 0 mm 2 mps 758 mmHg 58%
    Show more